STARLINK-33983, 63948

Orbit data source: Space-Track

STARLINK-33983, 63948 is a payload satellite owned by SpaceX/Seattle (US) in LEO that was launched on Tue, 13 May 2025 UTC via an FALCON 9 launch vehicle from the Air Force Western Test Range (AFWTR). Payload-class satellites include a variety of spacecraft equipped with specific instruments for various scientific and technological missions. These include communications satellites like Starlink; space stations such as the ISS; scientific satellites like the Hubble; Earth observation satellites from companies like Planet Labs, Umbra, and HawkEye 360; GPS; miniature CubeSats for education and research; and military/defense satellites.

Loading next visibility...
Identifier
63948, 2025-098Y
Orbit
LEO
Country
Flag of USUS
Related business
Manufacturer
SpaceX/Seattle
Mission
Operational Commercial Communications
Bus & Motor
STARLINK V2MO, Unknown motor
Mass
575 kg wet, ~530 kg dry
Launch date (UTC)
2025-05-13 (7 months ago)
Launch vehicle
FALCON 9
Launch site
Air Force Western Test Range (AFWTR)
Object type
Payload
Rocket body
Debris
Shape & HBR
Box + 2 Pan, 17.7 m
Radar Cross Section
36.964 m², Large (>1 m²)

Expand to show TLE details & history
Last TLE update: 8 hours ago

TLE from 8 hours ago
0 STARLINK-33983
1 63948U 25098Y   25349.84252168  .00005423  00000-0  46174-3 0  9992
2 63948  70.0007 125.8374 0002695 264.8691  95.2160 14.98344912 33996
Epoch: 2025-12-15T20:13Z
TLE epoch observation values (Epoch: 2025-12-15T20:13:13.873Z)
Latitude
-0.00006°
Longitude
97.79429°
Altitude
574.605 km
Speed
7.574 km/s
True Right ascension
08h 23m 20s
True Declination
0° 00' 00"
Sunlit
Object was in full shadow at epoch
Visualization orbit readout
Latitude
Unknown
Longitude
Unknown
Altitude
Unknown
Speed
Unknown
Apparent Right ascension
Unknown
Apparent Declination
Unknown
Sunlit
N/A
Visualization observer readout
Local Sidereal Time
03:08:09
Azimuth
Unknown
Elevation
Unknown
Doppler factor
Unknown
Orbital elements
Apogee altitude
571.83 km
Perigee altitude
568.085 km
Semi-major axis
6,948.095 km
Eccentricity
0.00027
Inclination
70.0007°
RAAN
125.8374°
Arg. of periapsis
264.8691°
True anomaly
95.24675°
Mean anomaly
95.216°
Eccentric anomaly
95.23138°
Mean motion
3.74753 °/min
Orbital period
96.06 mins
BSTAR
0.00046174
Loading maneuver chart data...
Computing Atmospheric mass density...
Loading historical data...
Loading historical data...
Loading historical data...
Loading historical data...
Loading historical data...
Loading historical data...
Loading historical data...

Documentation

Showing up to 5 results
|